Year,Month,Day,Hour,Minute,Value (Times are PST for temperature in C)
2015,06,30,00,00,25.40
2015,06,30,00,01,25.40
2015,06,30,00,02,25.40
2015,06,30,00,03,25.40
2015,06,30,00,04,25.30
2015,06,30,00,05,25.30
2015,06,30,00,06,25.30
2015,06,30,00,07,25.30
2015,06,30,00,08,25.30
2015,06,30,00,09,25.30
2015,06,30,00,10,25.20
2015,06,30,00,11,25.20
2015,06,30,00,12,25.20
2015,06,30,00,13,25.20
2015,06,30,00,14,25.20
2015,06,30,00,15,25.20
2015,06,30,00,16,25.20
2015,06,30,00,17,25.20
2015,06,30,00,18,25.20
2015,06,30,00,19,25.20
2015,06,30,00,20,25.20
2015,06,30,00,21,25.10
2015,06,30,00,22,25.10
2015,06,30,00,23,25.10
2015,06,30,00,24,25.10
2015,06,30,00,25,25.10
2015,06,30,00,26,25.10
2015,06,30,00,27,25.10
2015,06,30,00,28,25.10
2015,06,30,00,29,25.10
2015,06,30,00,30,25.10
2015,06,30,00,31,25.10
2015,06,30,00,32,25.10
2015,06,30,00,33,25.10
2015,06,30,00,34,25.10
2015,06,30,00,35,25.10
2015,06,30,00,36,25.10
2015,06,30,00,37,25.10
2015,06,30,00,38,25.10
2015,06,30,00,39,25.00
2015,06,30,00,40,25.00
2015,06,30,00,41,25.00
2015,06,30,00,42,24.90
2015,06,30,00,43,24.90
2015,06,30,00,44,24.90
2015,06,30,00,45,24.90
2015,06,30,00,46,24.90
2015,06,30,00,47,24.90
2015,06,30,00,48,24.90
2015,06,30,00,49,24.90
2015,06,30,00,50,24.90
2015,06,30,00,51,24.90
2015,06,30,00,52,24.90
2015,06,30,00,53,24.90
2015,06,30,00,54,24.90
2015,06,30,00,55,24.90
2015,06,30,00,56,24.90
2015,06,30,00,57,24.90
2015,06,30,00,58,24.90
2015,06,30,00,59,24.90
2015,06,30,01,00,24.90
2015,06,30,01,01,24.80
2015,06,30,01,02,24.80
2015,06,30,01,03,24.80
2015,06,30,01,04,24.80
2015,06,30,01,05,24.80
2015,06,30,01,06,24.80
2015,06,30,01,07,24.70
2015,06,30,01,08,24.70
2015,06,30,01,09,24.70
2015,06,30,01,10,24.70
2015,06,30,01,11,24.70
2015,06,30,01,12,24.60
2015,06,30,01,13,24.60
2015,06,30,01,14,24.60
2015,06,30,01,15,24.50
2015,06,30,01,16,24.50
2015,06,30,01,17,24.50
2015,06,30,01,18,24.50
2015,06,30,01,19,24.50
2015,06,30,01,20,24.40
2015,06,30,01,21,24.40
2015,06,30,01,22,24.40
2015,06,30,01,23,24.40
2015,06,30,01,24,24.30
2015,06,30,01,25,24.30
2015,06,30,01,26,24.30
2015,06,30,01,27,24.30
2015,06,30,01,28,24.20
2015,06,30,01,29,24.20
2015,06,30,01,30,24.20
2015,06,30,01,31,24.20
2015,06,30,01,32,24.20
2015,06,30,01,33,24.10
2015,06,30,01,34,24.10
2015,06,30,01,35,24.10
2015,06,30,01,36,24.00
2015,06,30,01,37,24.00
2015,06,30,01,38,23.90
2015,06,30,01,39,23.90
2015,06,30,01,40,23.90
2015,06,30,01,41,23.90
2015,06,30,01,42,23.90
2015,06,30,01,43,23.80
2015,06,30,01,44,23.80
2015,06,30,01,45,23.80
2015,06,30,01,46,23.80
2015,06,30,01,47,23.70
2015,06,30,01,48,23.70
2015,06,30,01,49,23.70
2015,06,30,01,50,23.70
2015,06,30,01,51,23.70
2015,06,30,01,52,23.60
2015,06,30,01,53,23.60
2015,06,30,01,54,23.60
2015,06,30,01,55,23.50
2015,06,30,01,56,23.50
2015,06,30,01,57,23.50
2015,06,30,01,58,23.50
2015,06,30,01,59,23.40
2015,06,30,02,00,23.40
2015,06,30,02,01,23.40
2015,06,30,02,02,23.40
2015,06,30,02,03,23.40
2015,06,30,02,04,23.40
2015,06,30,02,05,23.40
2015,06,30,02,06,23.30
2015,06,30,02,07,23.30
2015,06,30,02,08,23.30
2015,06,30,02,09,23.30
2015,06,30,02,10,23.30
2015,06,30,02,11,23.30
2015,06,30,02,12,23.20
2015,06,30,02,13,23.20
2015,06,30,02,14,23.20
2015,06,30,02,15,23.20
2015,06,30,02,16,23.20
2015,06,30,02,17,23.10
2015,06,30,02,18,23.10
2015,06,30,02,19,23.10
2015,06,30,02,20,23.10
2015,06,30,02,21,23.00
2015,06,30,02,22,23.00
2015,06,30,02,23,23.00
2015,06,30,02,24,22.90
2015,06,30,02,25,22.90
2015,06,30,02,26,22.90
2015,06,30,02,27,22.90
2015,06,30,02,28,22.90
2015,06,30,02,29,22.80
2015,06,30,02,30,22.80
2015,06,30,02,31,22.80
2015,06,30,02,32,22.80
2015,06,30,02,33,22.80
2015,06,30,02,34,22.80
2015,06,30,02,35,22.80
2015,06,30,02,36,22.80
2015,06,30,02,37,22.80
2015,06,30,02,38,22.70
2015,06,30,02,39,22.70
2015,06,30,02,40,22.70
2015,06,30,02,41,22.70
2015,06,30,02,42,22.70
2015,06,30,02,43,22.70
2015,06,30,02,44,22.70
2015,06,30,02,45,22.60
2015,06,30,02,46,22.60
2015,06,30,02,47,22.60
2015,06,30,02,48,22.60
2015,06,30,02,49,22.60
2015,06,30,02,50,22.60
2015,06,30,02,51,22.50
2015,06,30,02,52,22.50
2015,06,30,02,53,22.50
2015,06,30,02,54,22.50
2015,06,30,02,55,22.40
2015,06,30,02,56,22.40
2015,06,30,02,57,22.40
2015,06,30,02,58,22.40
2015,06,30,02,59,22.40
2015,06,30,03,00,22.40
2015,06,30,03,01,22.40
2015,06,30,03,02,22.30
2015,06,30,03,06,22.30
2015,06,30,03,07,22.20
2015,06,30,03,08,22.20
2015,06,30,03,09,22.20
2015,06,30,03,10,22.20
2015,06,30,03,11,22.20
2015,06,30,03,12,22.20
2015,06,30,03,13,22.20
2015,06,30,03,14,22.10
2015,06,30,03,15,22.10
2015,06,30,03,16,22.10
2015,06,30,03,17,22.10
2015,06,30,03,18,22.10
2015,06,30,03,19,22.10
2015,06,30,03,20,22.10
2015,06,30,03,21,22.10
2015,06,30,03,22,22.10
2015,06,30,03,23,22.10
2015,06,30,03,24,22.00
2015,06,30,03,25,22.00
2015,06,30,03,26,22.00
2015,06,30,03,27,22.00
2015,06,30,03,28,21.90
2015,06,30,03,29,21.90
2015,06,30,03,30,21.90
2015,06,30,03,31,21.90
2015,06,30,03,32,21.90
2015,06,30,03,33,21.90
2015,06,30,03,34,21.80
2015,06,30,03,35,21.80
2015,06,30,03,36,21.80
2015,06,30,03,37,21.80
2015,06,30,03,38,21.80
2015,06,30,03,39,21.80
2015,06,30,03,40,21.80
2015,06,30,03,41,21.70
2015,06,30,03,42,21.70
2015,06,30,03,43,21.70
2015,06,30,03,44,21.70
2015,06,30,03,45,21.70
2015,06,30,03,46,21.70
2015,06,30,03,47,21.60
2015,06,30,03,48,21.60
2015,06,30,03,49,21.60
2015,06,30,03,50,21.60
2015,06,30,03,51,21.60
2015,06,30,03,52,21.50
2015,06,30,03,53,21.50
2015,06,30,03,54,21.50
2015,06,30,03,55,21.50
2015,06,30,03,56,21.40
2015,06,30,03,57,21.40
2015,06,30,03,58,21.40
2015,06,30,03,59,21.40
2015,06,30,04,00,21.40
2015,06,30,04,01,21.40
2015,06,30,04,02,21.30
2015,06,30,04,03,21.30
2015,06,30,04,04,21.30
2015,06,30,04,05,21.30
2015,06,30,04,06,21.30
2015,06,30,04,07,21.30
2015,06,30,04,08,21.30
2015,06,30,04,09,21.20
2015,06,30,04,10,21.20
2015,06,30,04,11,21.20
2015,06,30,04,12,21.20
2015,06,30,04,13,21.20
2015,06,30,04,14,21.20
2015,06,30,04,15,21.10
2015,06,30,04,16,21.10
2015,06,30,04,17,21.10
2015,06,30,04,18,21.10
2015,06,30,04,19,21.10
2015,06,30,04,20,21.10
2015,06,30,04,21,21.10
2015,06,30,04,22,21.10
2015,06,30,04,23,21.10
2015,06,30,04,24,21.10
2015,06,30,04,25,21.00
2015,06,30,04,26,21.00
2015,06,30,04,27,21.00
2015,06,30,04,28,21.00
2015,06,30,04,29,21.00
2015,06,30,04,30,20.90
2015,06,30,04,31,20.90
2015,06,30,04,32,20.90
2015,06,30,04,33,20.90
2015,06,30,04,34,20.90
2015,06,30,04,35,20.90
2015,06,30,04,36,20.90
2015,06,30,04,37,20.90
2015,06,30,04,38,20.90
2015,06,30,04,39,20.80
2015,06,30,04,40,20.80
2015,06,30,04,41,20.80
2015,06,30,04,42,20.80
2015,06,30,04,43,20.80
2015,06,30,04,44,20.80
2015,06,30,04,45,20.70
2015,06,30,04,46,20.70
2015,06,30,04,47,20.70
2015,06,30,04,48,20.70
2015,06,30,04,49,20.70
2015,06,30,04,50,20.70
2015,06,30,04,51,20.60
2015,06,30,04,52,20.60
2015,06,30,04,53,20.60
2015,06,30,04,54,20.60
2015,06,30,04,55,20.60
2015,06,30,04,56,20.50
2015,06,30,04,57,20.50
2015,06,30,04,58,20.50
2015,06,30,04,59,20.50
2015,06,30,05,00,20.40
2015,06,30,05,01,20.40
2015,06,30,05,02,20.40
2015,06,30,05,03,20.40
2015,06,30,05,04,20.40
2015,06,30,05,05,20.40
2015,06,30,05,06,20.30
2015,06,30,05,07,20.30
2015,06,30,05,08,20.30
2015,06,30,05,09,20.30
2015,06,30,05,10,20.30
2015,06,30,05,11,20.30
2015,06,30,05,12,20.30
2015,06,30,05,13,20.30
2015,06,30,05,14,20.20
2015,06,30,05,15,20.20
2015,06,30,05,16,20.20
2015,06,30,05,17,20.20
2015,06,30,05,18,20.20
2015,06,30,05,19,20.20
2015,06,30,05,20,20.20
2015,06,30,05,21,20.10
2015,06,30,05,22,20.10
2015,06,30,05,23,20.10
2015,06,30,05,24,20.10
2015,06,30,05,25,20.10
2015,06,30,05,26,20.10
2015,06,30,05,27,20.10
2015,06,30,05,28,20.10
2015,06,30,05,29,20.10
2015,06,30,05,30,20.10
2015,06,30,05,31,20.10
2015,06,30,05,32,20.10
2015,06,30,05,33,20.10
2015,06,30,05,34,20.10
2015,06,30,05,35,20.10
2015,06,30,05,36,20.10
2015,06,30,05,37,20.10
2015,06,30,05,38,20.10
2015,06,30,05,39,20.10
2015,06,30,05,40,20.20
2015,06,30,05,41,20.20
2015,06,30,05,42,20.20
2015,06,30,05,43,20.20
2015,06,30,05,44,20.20
2015,06,30,05,45,20.20
2015,06,30,05,46,20.20
2015,06,30,05,47,20.20
2015,06,30,05,48,20.20
2015,06,30,05,49,20.20
2015,06,30,05,50,20.20
2015,06,30,05,51,20.20
2015,06,30,05,52,20.20
2015,06,30,05,53,20.20
2015,06,30,05,54,20.20
2015,06,30,05,55,20.20
2015,06,30,05,56,20.30
2015,06,30,05,57,20.30
2015,06,30,05,58,20.30
2015,06,30,05,59,20.30
2015,06,30,06,00,20.30
2015,06,30,06,01,20.30
2015,06,30,06,02,20.30
2015,06,30,06,03,20.30
2015,06,30,06,04,20.30
2015,06,30,06,05,20.40
2015,06,30,06,06,20.40
2015,06,30,06,07,20.40
2015,06,30,06,08,20.40
2015,06,30,06,09,20.40
2015,06,30,06,10,20.40
2015,06,30,06,11,20.40
2015,06,30,06,12,20.50
2015,06,30,06,13,20.50
2015,06,30,06,14,20.50
2015,06,30,06,15,20.50
2015,06,30,06,16,20.50
2015,06,30,06,17,20.50
2015,06,30,06,18,20.60
2015,06,30,06,19,20.60
2015,06,30,06,20,20.60
2015,06,30,06,21,20.60
2015,06,30,06,22,20.70
2015,06,30,06,23,20.70
2015,06,30,06,24,20.70
2015,06,30,06,25,20.70
2015,06,30,06,26,20.70
2015,06,30,06,27,20.70
2015,06,30,06,28,20.80
2015,06,30,06,29,20.80
2015,06,30,06,30,20.80
2015,06,30,06,31,20.80
2015,06,30,06,32,20.80
2015,06,30,06,33,20.80
2015,06,30,06,34,20.90
2015,06,30,06,35,20.90
2015,06,30,06,36,20.90
2015,06,30,06,37,20.90
2015,06,30,06,38,20.90
2015,06,30,06,39,20.90
2015,06,30,06,40,20.90
2015,06,30,06,41,20.90
2015,06,30,06,42,21.00
2015,06,30,06,43,21.00
2015,06,30,06,44,21.00
2015,06,30,06,45,21.00
2015,06,30,06,46,21.00
2015,06,30,06,47,21.10
2015,06,30,06,48,21.10
2015,06,30,06,49,21.10
2015,06,30,06,50,21.10
2015,06,30,06,51,21.20
2015,06,30,06,52,21.20
2015,06,30,06,53,21.20
2015,06,30,06,54,21.20
2015,06,30,06,55,21.30
2015,06,30,06,56,21.30
2015,06,30,06,57,21.30
2015,06,30,06,58,21.30
2015,06,30,06,59,21.30
2015,06,30,07,00,21.30
2015,06,30,07,01,21.30
2015,06,30,07,02,21.30
2015,06,30,07,03,21.40
2015,06,30,07,04,21.40
2015,06,30,07,05,21.40
2015,06,30,07,06,21.40
2015,06,30,07,07,21.40
2015,06,30,07,08,21.40
2015,06,30,07,09,21.40
2015,06,30,07,10,21.50
2015,06,30,07,11,21.50
2015,06,30,07,12,21.50
2015,06,30,07,13,21.50
2015,06,30,07,14,21.50
2015,06,30,07,15,21.50
2015,06,30,07,16,21.50
2015,06,30,07,17,21.60
2015,06,30,07,18,21.60
2015,06,30,07,19,21.60
2015,06,30,07,20,21.60
2015,06,30,07,21,21.60
2015,06,30,07,22,21.60
2015,06,30,07,23,21.70
2015,06,30,07,24,21.70
2015,06,30,07,25,21.70
2015,06,30,07,26,21.80
2015,06,30,07,27,21.80
2015,06,30,07,28,21.90
2015,06,30,07,29,21.90
2015,06,30,07,30,21.90
2015,06,30,07,31,22.00
2015,06,30,07,32,21.90
2015,06,30,07,33,21.90
2015,06,30,07,34,21.90
2015,06,30,07,35,21.90
2015,06,30,07,36,22.00
2015,06,30,07,37,22.00
2015,06,30,07,38,22.00
2015,06,30,07,39,22.00
2015,06,30,07,40,21.90
2015,06,30,07,41,21.90
2015,06,30,07,42,21.90
2015,06,30,07,43,21.90
2015,06,30,07,44,21.90
2015,06,30,07,45,21.90
2015,06,30,07,46,22.00
2015,06,30,07,47,22.00
2015,06,30,07,48,22.00
2015,06,30,07,49,22.00
2015,06,30,07,50,22.10
2015,06,30,07,51,22.10
2015,06,30,07,52,22.10
2015,06,30,07,53,22.20
2015,06,30,07,54,22.20
2015,06,30,07,55,22.20
2015,06,30,07,56,22.20
2015,06,30,07,57,22.30
2015,06,30,07,58,22.40
2015,06,30,07,59,22.40
2015,06,30,08,00,22.40
2015,06,30,08,01,22.40
2015,06,30,08,02,22.40
2015,06,30,08,03,22.50
2015,06,30,08,04,22.50
2015,06,30,08,05,22.60
2015,06,30,08,06,22.70
2015,06,30,08,07,22.70
2015,06,30,08,08,22.70
2015,06,30,08,09,22.70
2015,06,30,08,10,22.70
2015,06,30,08,11,22.60
2015,06,30,08,12,22.60
2015,06,30,08,13,22.60
2015,06,30,08,14,22.60
2015,06,30,08,15,22.70
2015,06,30,08,16,22.70
2015,06,30,08,17,22.70
2015,06,30,08,18,22.80
2015,06,30,08,19,22.80
2015,06,30,08,20,22.70
2015,06,30,08,21,22.80
2015,06,30,08,22,22.80
2015,06,30,08,23,22.80
2015,06,30,08,24,22.80
2015,06,30,08,25,22.90
2015,06,30,08,26,22.90
2015,06,30,08,27,22.90
2015,06,30,08,28,22.80
2015,06,30,08,29,22.80
2015,06,30,08,30,22.80
2015,06,30,08,31,22.80
2015,06,30,08,32,22.70
2015,06,30,08,33,22.70
2015,06,30,08,34,22.70
2015,06,30,08,35,22.60
2015,06,30,08,36,22.60
2015,06,30,08,37,22.60
2015,06,30,08,38,22.60
2015,06,30,08,39,22.60
2015,06,30,08,40,22.60
2015,06,30,08,41,22.70
2015,06,30,08,42,22.70
2015,06,30,08,43,22.70
2015,06,30,08,44,22.70
2015,06,30,08,45,22.70
2015,06,30,08,46,22.70
2015,06,30,08,47,22.70
2015,06,30,08,48,22.70
2015,06,30,08,49,22.70
2015,06,30,08,50,22.80
2015,06,30,08,51,22.80
2015,06,30,08,52,22.80
2015,06,30,08,53,22.80
2015,06,30,08,54,22.80
2015,06,30,08,55,22.80
2015,06,30,08,56,22.90
2015,06,30,08,57,22.90
2015,06,30,08,58,22.90
2015,06,30,08,59,22.90
2015,06,30,09,00,22.90
2015,06,30,09,01,22.90
2015,06,30,09,02,22.90
2015,06,30,09,03,22.90
2015,06,30,09,04,22.80
2015,06,30,09,05,22.80
2015,06,30,09,06,22.70
2015,06,30,09,07,22.70
2015,06,30,09,08,22.70
2015,06,30,09,09,22.70
2015,06,30,09,10,22.70
2015,06,30,09,11,22.70
2015,06,30,09,12,22.70
2015,06,30,09,13,22.70
2015,06,30,09,14,22.80
2015,06,30,09,15,22.80
2015,06,30,09,16,22.90
2015,06,30,09,17,22.90
2015,06,30,09,18,22.80
2015,06,30,09,19,22.80
2015,06,30,09,20,22.80
2015,06,30,09,21,22.80
2015,06,30,09,22,22.80
2015,06,30,09,23,22.80
2015,06,30,09,24,22.80
2015,06,30,09,25,22.80
2015,06,30,09,26,22.90
2015,06,30,09,27,22.90
2015,06,30,09,28,22.90
2015,06,30,09,29,22.90
2015,06,30,09,30,22.80
2015,06,30,09,31,22.80
2015,06,30,09,32,22.80
2015,06,30,09,33,22.80
2015,06,30,09,34,22.80
2015,06,30,09,35,22.80
2015,06,30,09,36,22.80
2015,06,30,09,37,22.80
2015,06,30,09,38,22.70
2015,06,30,09,39,22.70
2015,06,30,09,40,22.70
2015,06,30,09,41,22.60
2015,06,30,09,42,22.60
2015,06,30,09,43,22.60
2015,06,30,09,44,22.60
2015,06,30,09,45,22.60
2015,06,30,09,46,22.50
2015,06,30,09,47,22.60
2015,06,30,09,48,22.60
2015,06,30,09,49,22.50
2015,06,30,09,50,22.50
2015,06,30,09,51,22.50
2015,06,30,09,52,22.50
2015,06,30,09,53,22.50
2015,06,30,09,54,22.50
2015,06,30,09,55,22.50
2015,06,30,09,56,22.60
2015,06,30,09,57,22.60
2015,06,30,09,58,22.60
2015,06,30,09,59,22.70
2015,06,30,10,00,22.70
2015,06,30,10,01,22.70
2015,06,30,10,02,22.80
2015,06,30,10,03,22.80
2015,06,30,10,04,22.80
2015,06,30,10,05,22.80
2015,06,30,10,06,22.90
2015,06,30,10,07,22.90
2015,06,30,10,08,22.90
2015,06,30,10,09,23.00
2015,06,30,10,10,23.00
2015,06,30,10,11,23.00
2015,06,30,10,12,23.00
2015,06,30,10,13,22.90
2015,06,30,10,14,22.80
2015,06,30,10,15,22.80
2015,06,30,10,16,22.70
2015,06,30,10,17,22.60
2015,06,30,10,18,22.50
2015,06,30,10,19,22.50
2015,06,30,10,20,22.40
2015,06,30,10,21,22.40
2015,06,30,10,22,22.40
2015,06,30,10,23,22.40
2015,06,30,10,24,22.40
2015,06,30,10,25,22.30
2015,06,30,10,26,22.30
2015,06,30,10,27,22.20
2015,06,30,10,28,22.20
2015,06,30,10,29,22.20
2015,06,30,10,30,22.30
2015,06,30,10,31,22.30
2015,06,30,10,32,22.30
2015,06,30,10,33,22.30
2015,06,30,10,34,22.30
2015,06,30,10,35,22.30
2015,06,30,10,36,22.30
2015,06,30,10,37,22.30
2015,06,30,10,38,22.30
2015,06,30,10,39,22.40
2015,06,30,10,40,22.40
2015,06,30,10,41,22.40
2015,06,30,10,42,22.50
2015,06,30,10,43,22.50
2015,06,30,10,44,22.60
2015,06,30,10,45,22.70
2015,06,30,10,46,22.70
2015,06,30,10,47,22.70
2015,06,30,10,48,22.80
2015,06,30,10,49,22.80
2015,06,30,10,50,22.90
2015,06,30,10,51,22.90
2015,06,30,10,52,22.90
2015,06,30,10,53,22.90
2015,06,30,10,54,22.90
2015,06,30,10,55,22.90
2015,06,30,10,56,22.90
2015,06,30,10,57,22.90
2015,06,30,10,58,22.90
2015,06,30,10,59,22.90
2015,06,30,11,00,23.00
2015,06,30,11,01,22.90
2015,06,30,11,02,23.00
2015,06,30,11,03,23.00
2015,06,30,11,04,23.00
2015,06,30,11,05,23.10
2015,06,30,11,06,23.10
2015,06,30,11,07,23.10
2015,06,30,11,08,23.10
2015,06,30,11,09,23.10
2015,06,30,11,10,23.20
2015,06,30,11,11,23.20
2015,06,30,11,12,23.20
2015,06,30,11,13,23.20
2015,06,30,11,14,23.20
2015,06,30,11,15,23.20
2015,06,30,11,16,23.20
2015,06,30,11,17,23.30
2015,06,30,11,18,23.30
2015,06,30,11,19,23.30
2015,06,30,11,20,23.30
2015,06,30,11,21,23.30
2015,06,30,11,22,23.30
2015,06,30,11,23,23.30
2015,06,30,11,24,23.30
2015,06,30,11,25,23.30
2015,06,30,11,26,23.20
2015,06,30,11,27,23.20
2015,06,30,11,28,23.10
2015,06,30,11,29,23.10
2015,06,30,11,30,23.10
2015,06,30,11,31,23.10
2015,06,30,11,32,23.20
2015,06,30,11,33,23.30
2015,06,30,11,34,23.30
2015,06,30,11,35,23.40
2015,06,30,11,36,23.40
2015,06,30,11,37,23.40
2015,06,30,11,38,23.50
2015,06,30,11,39,23.50
2015,06,30,11,40,23.60
2015,06,30,11,41,23.60
2015,06,30,11,42,23.70
2015,06,30,11,43,23.60
2015,06,30,11,44,23.60
2015,06,30,11,45,23.60
2015,06,30,11,46,23.60
2015,06,30,11,47,23.60
2015,06,30,11,48,23.60
2015,06,30,11,49,23.60
2015,06,30,11,50,23.50
2015,06,30,11,51,23.50
2015,06,30,11,52,23.60
2015,06,30,11,53,23.60
2015,06,30,11,54,23.70
2015,06,30,11,55,23.70
2015,06,30,11,56,23.80
2015,06,30,11,57,23.80
2015,06,30,11,58,23.80
2015,06,30,11,59,23.80
2015,06,30,12,00,23.80
2015,06,30,12,01,23.80
2015,06,30,12,02,23.80
2015,06,30,12,03,23.80
2015,06,30,12,04,23.80
2015,06,30,12,05,23.80
2015,06,30,12,06,23.90
2015,06,30,12,07,23.90
2015,06,30,12,08,23.90
2015,06,30,12,09,23.90
2015,06,30,12,10,24.00
2015,06,30,12,11,24.10
2015,06,30,12,12,24.10
2015,06,30,12,13,24.20
2015,06,30,12,14,24.30
2015,06,30,12,15,24.30
2015,06,30,12,16,24.30
2015,06,30,12,17,24.30
2015,06,30,12,18,24.30
2015,06,30,12,19,24.40
2015,06,30,12,20,24.40
2015,06,30,12,21,24.40
2015,06,30,12,22,24.40
2015,06,30,12,23,24.30
2015,06,30,12,24,24.20
2015,06,30,12,25,24.20
2015,06,30,12,26,24.10
2015,06,30,12,27,24.10
2015,06,30,12,28,24.00
2015,06,30,12,29,24.00
2015,06,30,12,30,24.00
2015,06,30,12,31,24.10
2015,06,30,12,32,24.10
2015,06,30,12,33,24.10
2015,06,30,12,34,24.10
2015,06,30,12,35,24.10
2015,06,30,12,36,24.10
2015,06,30,12,37,24.20
2015,06,30,12,38,24.20
2015,06,30,12,39,24.20
2015,06,30,12,40,24.30
2015,06,30,12,41,24.30
2015,06,30,12,42,24.30
2015,06,30,12,43,24.30
2015,06,30,12,44,24.40
2015,06,30,12,45,24.40
2015,06,30,12,46,24.40
2015,06,30,12,47,24.40
2015,06,30,12,48,24.40
2015,06,30,12,49,24.40
2015,06,30,12,50,24.40
2015,06,30,12,51,24.30
2015,06,30,12,52,24.30
2015,06,30,12,53,24.30
2015,06,30,12,54,24.30
2015,06,30,12,55,24.40
2015,06,30,12,56,24.40
2015,06,30,12,57,24.40
2015,06,30,12,58,24.40
2015,06,30,12,59,24.40
2015,06,30,13,00,24.40
2015,06,30,13,01,24.40
2015,06,30,13,02,24.40
2015,06,30,13,03,24.50
2015,06,30,13,04,24.50
2015,06,30,13,05,24.50
2015,06,30,13,06,24.60
2015,06,30,13,07,24.60
2015,06,30,13,08,24.70
2015,06,30,13,09,24.70
2015,06,30,13,10,24.80
2015,06,30,13,11,24.90
2015,06,30,13,12,25.00
2015,06,30,13,13,25.00
2015,06,30,13,14,25.00
2015,06,30,13,15,25.00
2015,06,30,13,16,24.90
2015,06,30,13,17,24.80
2015,06,30,13,18,24.90
2015,06,30,13,19,24.90
2015,06,30,13,20,24.90
2015,06,30,13,21,24.90
2015,06,30,13,22,24.90
2015,06,30,13,23,25.00
2015,06,30,13,24,25.00
2015,06,30,13,25,25.10
2015,06,30,13,26,25.20
2015,06,30,13,27,25.30
2015,06,30,13,28,25.40
2015,06,30,13,29,25.50
2015,06,30,13,30,25.50
2015,06,30,13,31,25.60
2015,06,30,13,32,25.60
2015,06,30,13,33,25.60
2015,06,30,13,34,25.60
2015,06,30,13,35,25.60
2015,06,30,13,36,25.50
2015,06,30,13,37,25.50
2015,06,30,13,38,25.50
2015,06,30,13,39,25.40
2015,06,30,13,40,25.30
2015,06,30,13,41,25.20
2015,06,30,13,42,25.10
2015,06,30,13,43,25.10
2015,06,30,13,44,25.10
2015,06,30,13,45,25.10
2015,06,30,13,46,25.10
2015,06,30,13,47,25.00
2015,06,30,13,48,24.90
2015,06,30,13,49,24.80
2015,06,30,13,50,24.60
2015,06,30,13,51,24.50
2015,06,30,13,52,24.50
2015,06,30,13,53,24.40
2015,06,30,13,54,24.30
2015,06,30,13,55,24.20
2015,06,30,13,56,24.10
2015,06,30,13,57,24.10
2015,06,30,13,58,24.10
2015,06,30,13,59,24.10
2015,06,30,14,00,24.00
2015,06,30,14,01,24.00
2015,06,30,14,02,24.00
2015,06,30,14,03,24.00
2015,06,30,14,04,24.10
2015,06,30,14,05,24.20
2015,06,30,14,06,24.30
2015,06,30,14,07,24.30
2015,06,30,14,08,24.40
2015,06,30,14,09,24.40
2015,06,30,14,10,24.40
2015,06,30,14,11,24.40
2015,06,30,14,12,24.50
2015,06,30,14,13,24.50
2015,06,30,14,14,24.40
2015,06,30,14,15,24.30
2015,06,30,14,16,24.30
2015,06,30,14,17,24.30
2015,06,30,14,18,24.30
2015,06,30,14,19,24.30
2015,06,30,14,20,24.40
2015,06,30,14,21,24.50
2015,06,30,14,22,24.60
2015,06,30,14,23,24.70
2015,06,30,14,24,24.70
2015,06,30,14,25,24.70
2015,06,30,14,26,24.70
2015,06,30,14,27,24.60
2015,06,30,14,28,24.60
2015,06,30,14,29,24.70
2015,06,30,14,30,24.70
2015,06,30,14,31,24.70
2015,06,30,14,32,24.70
2015,06,30,14,33,24.70
2015,06,30,14,34,24.60
2015,06,30,14,35,24.60
2015,06,30,14,36,24.50
2015,06,30,14,37,24.50
2015,06,30,14,38,24.40
2015,06,30,14,39,24.20
2015,06,30,14,40,24.10
2015,06,30,14,41,23.90
2015,06,30,14,42,23.80
2015,06,30,14,43,23.70
2015,06,30,14,44,23.70
2015,06,30,14,45,23.70
2015,06,30,14,46,23.70
2015,06,30,14,47,23.70
2015,06,30,14,48,23.80
2015,06,30,14,49,23.80
2015,06,30,14,50,23.90
2015,06,30,14,51,24.00
2015,06,30,14,52,24.10
2015,06,30,14,53,24.20
2015,06,30,14,54,24.30
2015,06,30,14,55,24.30
2015,06,30,14,56,24.40
2015,06,30,14,57,24.50
2015,06,30,14,58,24.70
2015,06,30,14,59,24.80
2015,06,30,15,00,24.80
2015,06,30,15,01,24.90
2015,06,30,15,02,25.00
2015,06,30,15,03,25.10
2015,06,30,15,04,25.10
2015,06,30,15,05,25.20
2015,06,30,15,06,25.20
2015,06,30,15,07,25.20
2015,06,30,15,08,25.20
2015,06,30,15,09,25.20
2015,06,30,15,10,25.30
2015,06,30,15,11,25.30
2015,06,30,15,12,25.30
2015,06,30,15,13,25.30
2015,06,30,15,14,25.30
2015,06,30,15,15,25.30
2015,06,30,15,16,25.30
2015,06,30,15,17,25.30
2015,06,30,15,18,25.30
2015,06,30,15,19,25.40
2015,06,30,15,20,25.40
2015,06,30,15,21,25.50
2015,06,30,15,22,25.50
2015,06,30,15,23,25.60
2015,06,30,15,24,25.60
2015,06,30,15,25,25.60
2015,06,30,15,26,25.70
2015,06,30,15,27,25.70
2015,06,30,15,28,25.80
2015,06,30,15,29,25.90
2015,06,30,15,30,26.00
2015,06,30,15,31,26.10
2015,06,30,15,32,26.10
2015,06,30,15,33,26.20
2015,06,30,15,34,26.20
2015,06,30,15,35,26.10
2015,06,30,15,36,26.10
2015,06,30,15,37,26.00
2015,06,30,15,38,25.90
2015,06,30,15,39,25.80
2015,06,30,15,40,25.70
2015,06,30,15,41,25.70
2015,06,30,15,42,25.70
2015,06,30,15,43,25.60
2015,06,30,15,44,25.60
2015,06,30,15,45,25.50
2015,06,30,15,46,25.40
2015,06,30,15,47,25.40
2015,06,30,15,48,25.30
2015,06,30,15,49,25.30
2015,06,30,15,50,25.30
2015,06,30,15,51,25.30
2015,06,30,15,52,25.30
2015,06,30,15,53,25.30
2015,06,30,15,54,25.40
2015,06,30,15,55,25.50
2015,06,30,15,56,25.60
2015,06,30,15,57,25.80
2015,06,30,15,58,25.80
2015,06,30,15,59,25.90
2015,06,30,16,00,26.10
2015,06,30,16,01,26.20
2015,06,30,16,02,26.30
2015,06,30,16,03,26.40
2015,06,30,16,04,26.40
2015,06,30,16,05,26.50
2015,06,30,16,06,26.60
2015,06,30,16,07,26.60
2015,06,30,16,08,26.60
2015,06,30,16,09,26.60
2015,06,30,16,10,26.60
2015,06,30,16,11,26.60
2015,06,30,16,12,26.60
2015,06,30,16,13,26.60
2015,06,30,16,14,26.60
2015,06,30,16,15,26.50
2015,06,30,16,16,26.40
2015,06,30,16,17,26.30
2015,06,30,16,18,26.30
2015,06,30,16,19,26.20
2015,06,30,16,20,26.10
2015,06,30,16,21,26.10
2015,06,30,16,22,26.10
2015,06,30,16,23,26.10
2015,06,30,16,24,26.10
2015,06,30,16,25,26.10
2015,06,30,16,26,26.10
2015,06,30,16,27,26.10
2015,06,30,16,28,26.00
2015,06,30,16,29,26.00
2015,06,30,16,30,26.00
2015,06,30,16,31,26.00
2015,06,30,16,32,26.00
2015,06,30,16,33,26.00
2015,06,30,16,34,26.10
2015,06,30,16,35,26.10
2015,06,30,16,36,26.10
2015,06,30,16,37,26.10
2015,06,30,16,38,26.20
2015,06,30,16,39,26.10
2015,06,30,16,40,26.10
2015,06,30,16,41,26.20
2015,06,30,16,42,26.20
2015,06,30,16,43,26.20
2015,06,30,16,44,26.20
2015,06,30,16,45,26.20
2015,06,30,16,46,26.20
2015,06,30,16,47,26.20
2015,06,30,16,48,26.20
2015,06,30,16,49,26.30
2015,06,30,16,50,26.30
2015,06,30,16,51,26.30
2015,06,30,16,52,26.40
2015,06,30,16,53,26.30
2015,06,30,16,54,26.30
2015,06,30,16,55,26.30
2015,06,30,16,56,26.30
2015,06,30,16,57,26.20
2015,06,30,16,58,26.20
2015,06,30,16,59,26.20
2015,06,30,17,00,26.20
2015,06,30,17,01,26.20
2015,06,30,17,02,26.20
2015,06,30,17,03,26.20
2015,06,30,17,04,26.20
2015,06,30,17,05,26.20
2015,06,30,17,06,26.10
2015,06,30,17,07,26.10
2015,06,30,17,08,26.10
2015,06,30,17,09,26.20
2015,06,30,17,10,26.20
2015,06,30,17,11,26.30
2015,06,30,17,12,26.20
2015,06,30,17,13,26.20
2015,06,30,17,14,26.20
2015,06,30,17,15,26.20
2015,06,30,17,16,26.10
2015,06,30,17,17,26.10
2015,06,30,17,18,26.10
2015,06,30,17,19,26.10
2015,06,30,17,20,26.10
2015,06,30,17,21,26.10
2015,06,30,17,22,26.10